Time,TemperatureF,DewpointF,PressureIn,WindDirection,WindDirectionDegrees,WindSpeedMPH,WindSpeedGustMPH,Humidity,HourlyPrecipIn,Conditions,Clouds,dailyrainin,SoftwareType,DateUTC
2013-03-04 00:32:00,-999.0,-99.9,-100.00,NNW,331,9.0,10.0,-999,-99.99,,,-99.99,,2013-03-04 06:32:00,
2013-03-04 00:42:00,-999.0,-99.9,30.16,NNW,331,9.0,10.0,-999,-99.99,,,-99.99,,2013-03-04 06:42:00,
2013-03-04 01:02:00,12.0,-99.9,30.16,NNW,333,7.0,8.0,-999,-99.99,,,-99.99,,2013-03-04 07:02:00,
2013-03-04 02:02:00,-999.0,-99.9,-100.00,NNW,347,8.0,9.0,-999,-99.99,,,-99.99,,2013-03-04 08:02:00,
2013-03-04 02:12:00,-999.0,-99.9,30.17,NNW,347,8.0,9.0,-999,-99.99,,,-99.99,,2013-03-04 08:12:00,
2013-03-04 02:32:00,11.0,-99.9,30.17,NW,324,8.0,9.0,-999,-99.99,,,-99.99,,2013-03-04 08:32:00,
2013-03-04 03:02:00,13.0,-99.9,30.17,NW,309,7.0,8.0,-999,-99.99,,,-99.99,,2013-03-04 09:02:00,
2013-03-04 03:32:00,12.0,-99.9,30.17,NW,310,6.0,7.0,-999,-99.99,,,-99.99,,2013-03-04 09:32:00,
2013-03-04 04:02:00,-999.0,-99.9,-100.00,WNW,297,5.0,6.0,-999,-99.99,,,-99.99,,2013-03-04 10:02:00,
2013-03-04 04:12:00,-999.0,-99.9,30.16,WNW,297,5.0,6.0,-999,-99.99,,,-99.99,,2013-03-04 10:12:00,
2013-03-04 04:32:00,11.0,-99.9,30.16,WNW,282,4.0,6.0,-999,-99.99,,,-99.99,,2013-03-04 10:32:00,
2013-03-04 05:11:00,-999.0,-99.9,-100.00,West,276,4.0,6.0,-999,-99.99,,,-99.99,,2013-03-04 11:11:00,
2013-03-04 05:22:00,-999.0,-99.9,30.18,West,276,4.0,6.0,-999,-99.99,,,-99.99,,2013-03-04 11:22:00,
2013-03-04 05:32:00,-999.0,-99.9,-100.00,West,280,5.0,7.0,-999,-99.99,,,-99.99,,2013-03-04 11:32:00,
2013-03-04 05:42:00,-999.0,-99.9,30.18,West,280,5.0,7.0,-999,-99.99,,,-99.99,,2013-03-04 11:42:00,
2013-03-04 06:02:00,11.0,-99.9,30.19,WNW,291,5.0,7.0,-999,-99.99,,,-99.99,,2013-03-04 12:02:00,
2013-03-04 07:02:00,-999.0,-99.9,-100.00,WNW,298,4.0,6.0,-999,-99.99,,,-99.99,,2013-03-04 13:02:00,
2013-03-04 07:11:00,-999.0,-99.9,30.18,WNW,298,4.0,6.0,-999,-99.99,,,-99.99,,2013-03-04 13:11:00,
2013-03-04 07:32:00,11.0,-99.9,30.19,WNW,287,4.0,5.0,-999,-99.99,,,-99.99,,2013-03-04 13:32:00,
2013-03-04 08:32:00,-999.0,-99.9,-100.00,NW,324,2.0,3.0,-999,-99.99,,,-99.99,,2013-03-04 14:32:00,
2013-03-04 08:42:00,-999.0,-99.9,30.19,NW,324,2.0,3.0,-999,-99.99,,,-99.99,,2013-03-04 14:42:00,
2013-03-04 09:02:00,-999.0,-99.9,-100.00,North,8,3.0,5.0,-999,-99.99,,,-99.99,,2013-03-04 15:02:00,
2013-03-04 09:11:00,-999.0,-99.9,30.20,North,8,3.0,5.0,-999,-99.99,,,-99.99,,2013-03-04 15:11:00,
2013-03-04 09:32:00,14.0,-99.9,30.19,NE,44,3.0,3.0,-999,-99.99,,,-99.99,,2013-03-04 15:32:00,
2013-03-04 10:03:00,13.0,-99.9,30.20,East,97,3.0,4.0,-999,-99.99,,,-99.99,,2013-03-04 16:03:00,
2013-03-04 10:32:00,-999.0,-99.9,-100.00,ENE,65,5.0,7.0,-999,-99.99,,,-99.99,,2013-03-04 16:32:00,
2013-03-04 10:42:00,-999.0,-99.9,30.21,ENE,65,5.0,7.0,-999,-99.99,,,-99.99,,2013-03-04 16:42:00,
2013-03-04 11:02:00,15.0,-99.9,30.21,NNE,20,5.0,6.0,-999,-99.99,,,-99.99,,2013-03-04 17:02:00,
2013-03-04 12:02:00,-999.0,-99.9,-100.00,NNE,23,6.0,8.0,-999,-99.99,,,-99.99,,2013-03-04 18:02:00,
2013-03-04 12:11:00,-999.0,-99.9,30.20,NNE,23,6.0,8.0,-999,-99.99,,,-99.99,,2013-03-04 18:11:00,
2013-03-04 12:33:00,21.0,-99.9,30.19,NNE,23,4.0,5.0,-999,-99.99,,,-99.99,,2013-03-04 18:33:00,
2013-03-04 13:32:00,-999.0,-99.9,-100.00,NE,34,14.0,16.0,-999,-99.99,,,-99.99,,2013-03-04 19:32:00,
2013-03-04 13:42:00,-999.0,-99.9,30.16,NE,34,14.0,16.0,-999,-99.99,,,-99.99,,2013-03-04 19:42:00,
2013-03-04 14:02:00,24.0,-99.9,30.16,NE,34,12.0,14.0,-999,-99.99,,,-99.99,,2013-03-04 20:02:00,
2013-03-04 15:02:00,-999.0,-99.9,-100.00,NNE,33,12.0,13.0,-999,-99.99,,,-99.99,,2013-03-04 21:02:00,
2013-03-04 15:12:00,-999.0,-99.9,30.15,NNE,33,12.0,13.0,-999,-99.99,,,-99.99,,2013-03-04 21:12:00,
2013-03-04 15:32:00,23.0,-99.9,30.15,NNE,24,11.0,13.0,-999,-99.99,,,-99.99,,2013-03-04 21:32:00,
2013-03-04 16:32:00,-999.0,-99.9,-100.00,NNE,17,8.0,9.0,-999,-99.99,,,-99.99,,2013-03-04 22:32:00,
2013-03-04 16:43:00,-999.0,-99.9,30.15,NNE,17,8.0,9.0,-999,-99.99,,,-99.99,,2013-03-04 22:43:00,
2013-03-04 17:02:00,19.0,-99.9,30.15,NNE,23,9.0,9.0,-999,-99.99,,,-99.99,,2013-03-04 23:02:00,
2013-03-04 18:02:00,-999.0,-99.9,-100.00,NNE,20,4.0,6.0,-999,-99.99,,,-99.99,,2013-03-05 00:02:00,
2013-03-04 18:12:00,-999.0,-99.9,30.16,NNE,20,4.0,6.0,-999,-99.99,,,-99.99,,2013-03-05 00:12:00,
2013-03-04 18:33:00,18.0,-99.9,30.15,NNE,26,5.0,6.0,-999,-99.99,,,-99.99,,2013-03-05 00:33:00,
2013-03-04 19:33:00,-999.0,-99.9,-100.00,North,5,4.0,6.0,-999,-99.99,,,-99.99,,2013-03-05 01:33:00,
2013-03-04 19:42:00,-999.0,-99.9,30.16,North,5,4.0,6.0,-999,-99.99,,,-99.99,,2013-03-05 01:42:00,
2013-03-04 20:02:00,16.0,-99.9,30.16,North,6,6.0,7.0,-999,-99.99,,,-99.99,,2013-03-05 02:02:00,
2013-03-04 20:33:00,13.0,-99.9,30.16,North,3,9.0,10.0,-999,-99.99,,,-99.99,,2013-03-05 02:33:00,
2013-03-04 21:02:00,12.0,-99.9,30.16,North,353,9.0,10.0,-999,-99.99,,,-99.99,,2013-03-05 03:02:00,
2013-03-04 21:32:00,-999.0,-99.9,-100.00,NNW,339,8.0,9.0,-999,-99.99,,,-99.99,,2013-03-05 03:32:00,
2013-03-04 21:42:00,-999.0,-99.9,30.16,NNW,339,8.0,9.0,-999,-99.99,,,-99.99,,2013-03-05 03:42:00,
2013-03-04 22:02:00,17.0,-99.9,30.17,NNW,339,6.0,8.0,-999,-99.99,,,-99.99,,2013-03-05 04:02:00,
2013-03-04 22:32:00,18.0,-99.9,30.17,NNW,335,7.0,8.0,-999,-99.99,,,-99.99,,2013-03-05 04:32:00,
2013-03-04 23:02:00,-999.0,-99.9,-100.00,North,2,11.0,11.0,-999,-99.99,,,-99.99,,2013-03-05 05:02:00,
2013-03-04 23:12:00,-999.0,-99.9,30.17,North,2,11.0,11.0,-999,-99.99,,,-99.99,,2013-03-05 05:12:00,
2013-03-04 23:32:00,12.0,-99.9,30.17,NNE,14,13.0,14.0,-999,-99.99,,,-99.99,,2013-03-05 05:32:00,